GW4124 Weather Reports


time (UTC)temp
F
wind
direction
speed
knots
gust
knots
rain 1hr
in
rain 24hr
in
rain mn
in
humidity
%
barometer
mb
20260906165227 92 178 3.5 5.2 0.00 0.00 0.00 63 1017.9
20260906164726 91 160 1.7 2.6 0.00 0.00 0.00 65 1017.9
20260906164216 90 168 5.2 7.0 0.00 0.00 0.00 67 1017.8
20260906163712 89 142 0.9 5.2 0.00 0.00 0.00 69 1017.9
20260906163208 90 149 2.6 3.5 0.00 0.00 0.00 67 1017.8
20260906162705 89 218 2.6 5.2 0.00 0.00 0.00 69 1018.0
20260906162205 90 157 1.7 2.6 0.00 0.00 0.00 68 1018.0
20260906161659 89 185 1.7 3.5 0.00 0.00 0.00 69 1018.0
20260906161158 88 157 1.7 3.5 0.00 0.00 0.00 71 1018.0
20260906160657 89 159 1.7 2.6 0.00 0.00 0.00 70 1018.1
20260906160156 87 138 0.9 3.5 0.00 0.00 0.00 72 1018.2
20260906155654 87 157 2.6 5.2 0.00 0.00 0.00 73 1018.3
20260906155150 86 168 0.9 7.8 0.00 0.00 0.00 74 1018.0
20260906154645 86 155 0.0 7.0 0.00 0.00 0.00 75 1018.3
20260906154145 86 184 2.6 5.2 0.00 0.00 0.00 75 1018.1
20260906153644 85 153 0.0 2.6 0.00 0.00 0.00 75 1018.3
20260906153138 86 190 1.7 2.6 0.00 0.00 0.00 76 1018.2
20260906152633 86 179 1.7 5.2 0.00 0.00 0.00 77 1018.2
20260906152127 86 161 1.7 2.6 0.00 0.00 0.00 75 1018.2
20260906151622 84 147 1.7 5.2 0.00 0.00 0.00 78 1018.3
20260906151118 84 197 3.5 5.2 0.00 0.00 0.00 79 1018.3
20260906150613 85 159 1.7 3.5 0.00 0.00 0.00 77 1018.3
20260906150109 83 167 0.9 3.5 0.00 0.00 0.00 80 1018.4
20260906145607 83 165 0.9 2.6 0.00 0.00 0.00 80 1018.4
20260906145102 83 211 4.3 6.1 0.00 0.00 0.00 81 1018.2
20260906144556 84 158 0.9 2.6 0.00 0.00 0.00 79 1018.2
20260906144052 83 180 1.7 5.2 0.00 0.00 0.00 82 1018.1
20260906143546 82 153 0.0 6.1 0.00 0.00 0.00 82 1018.0
20260906143037 83 194 1.7 2.6 0.00 0.00 0.00 81 1018.1
20260906142531 82 154 0.0 3.5 0.00 0.00 0.00 82 1018.1
20260906142027 83 169 0.9 1.7 0.00 0.00 0.00 80 1018.0
20260906141525 82 157 0.9 5.2 0.00 0.00 0.00 82 1018.0
20260906141020 81 154 0.0 5.2 0.00 0.00 0.00 84 1018.2
20260906140515 81 160 1.7 2.6 0.00 0.00 0.00 84 1018.2
20260906140014 81 165 1.7 2.6 0.00 0.00 0.00 85 1018.0
20260906135511 81 183 4.3 7.0 0.00 0.00 0.00 85 1018.4
20260906135007 80 182 0.9 1.7 0.00 0.00 0.00 86 1018.2
20260906134503 82 232 1.7 6.1 0.00 0.00 0.00 85 1018.0
20260906134002 81 142 0.9 1.7 0.00 0.00 0.00 84 1018.2
20260906133458 80 157 1.7 5.2 0.00 0.00 0.00 86 1018.2
20260906132954 80 153 0.0 0.9 0.00 0.00 0.00 88 1018.3
20260906132449 79 171 2.6 6.1 0.00 0.00 0.00 89 1018.1
20260906131944 80 160 0.9 1.7 0.00 0.00 0.00 88 1018.1
20260906131439 79 156 0.9 3.5 0.00 0.00 0.00 90 1018.2
20260906130935 79 157 0.9 1.7 0.00 0.00 0.00 89 1017.9
20260906130434 78 169 1.7 1.7 0.00 0.00 0.00 91 1018.1
20260906125928 78 166 1.7 3.5 0.00 0.00 0.00 92 1017.9
20260906125425 78 164 2.6 3.5 0.00 0.00 0.00 92 1018.0
20260906124920 78 165 1.7 2.6 0.00 0.00 0.00 92 1017.9
20260906124416 78 159 0.9 1.7 0.00 0.00 0.00 93 1017.8
20260906123915 78 158 0.0 0.9 0.00 0.00 0.00 93 1017.7
20260906123410 77 158 0.0 1.7 0.00 0.00 0.00 95 1017.6
20260906122910 77 155 0.0 0.9 0.00 0.00 0.00 96 1017.7
20260906122404 76 160 0.9 1.7 0.00 0.00 0.00 96 1017.4
20260906121902 76 171 1.7 5.2 0.00 0.00 0.00 97 1017.4
20260906121357 76 176 1.7 3.5 0.00 0.00 0.00 97 1017.2
20260906120853 76 176 1.7 3.5 0.00 0.00 0.00 97 1017.4
20260906120349 76 184 2.6 3.5 0.00 0.00 0.00 97 1017.1
20260906115845 76 176 0.9 3.5 0.00 0.00 0.00 97 1017.3
20260906115340 76 166 0.9 3.5 0.00 0.00 0.00 97 1017.1
20260906114839 76 173 1.7 3.5 0.00 0.00 0.00 97 1017.1
20260906114335 76 175 1.7 3.5 0.00 0.00 0.00 97 1017.1
20260906113830 76 191 5.2 6.1 0.00 0.00 0.00 97 1017.1
20260906113328 76 178 2.6 3.5 0.00 0.00 0.00 97 1016.9
20260906112824 77 188 2.6 3.5 0.00 0.00 0.00 97 1017.1
20260906112315 77 173 1.7 5.2 0.00 0.00 0.00 97 1016.9
20260906111814 77 191 1.7 3.5 0.00 0.00 0.00 96 1017.0
20260906111313 77 177 2.6 3.5 0.00 0.00 0.00 96 1017.0
20260906110803 77 174 1.7 3.5 0.00 0.00 0.00 96 1016.6
20260906110259 77 171 1.7 6.1 0.00 0.00 0.00 96 1016.9
20260906105758 77 173 1.7 3.5 0.00 0.00 0.00 96 1016.9
20260906105254 77 181 2.6 6.1 0.00 0.00 0.00 96 1016.8
20260906104749 77 200 4.3 6.1 0.00 0.00 0.00 96 1016.8
20260906104247 77 170 1.7 2.6 0.00 0.00 0.00 96 1016.8
20260906103745 77 178 1.7 3.5 0.00 0.00 0.00 96 1016.7
20260906103239 77 167 1.7 2.6 0.00 0.00 0.00 96 1016.6
20260906102736 77 164 0.9 1.7 0.00 0.00 0.00 95 1016.6
20260906102235 77 185 1.7 5.2 0.00 0.00 0.00 95 1016.7
20260906101730 77 171 1.7 5.2 0.00 0.00 0.00 95 1016.6
20260906101225 77 182 1.7 5.2 0.00 0.00 0.00 95 1016.7
20260906100720 77 180 2.6 3.5 0.00 0.00 0.00 95 1016.7
20260906100214 77 181 2.6 5.2 0.00 0.00 0.00 95 1016.8
20260906095709 77 184 3.5 5.2 0.00 0.00 0.00 95 1016.7
20260906095204 77 171 2.6 5.2 0.00 0.00 0.00 95 1016.5
20260906094703 77 177 1.7 3.5 0.00 0.00 0.00 95 1016.5
20260906094159 78 177 1.7 5.2 0.00 0.00 0.00 95 1016.3
20260906093655 78 177 2.6 6.1 0.00 0.00 0.00 94 1016.5
20260906093150 78 159 0.9 5.2 0.00 0.00 0.00 94 1016.5
20260906092645 78 171 1.7 3.5 0.00 0.00 0.00 94 1016.4
20260906092144 78 179 2.6 6.1 0.00 0.00 0.00 94 1016.4
20260906091641 78 184 2.6 5.2 0.00 0.00 0.00 94 1016.4
20260906091137 78 199 3.5 3.5 0.00 0.00 0.00 94 1016.3
20260906090632 78 166 1.7 1.7 0.00 0.00 0.00 93 1016.2
20260906090126 78 172 0.9 3.5 0.00 0.00 0.00 93 1016.2
20260906085626 78 180 2.6 5.2 0.00 0.00 0.00 93 1016.2
20260906085120 78 161 0.9 2.6 0.00 0.00 0.00 92 1016.1
20260906084615 78 173 1.7 2.6 0.00 0.00 0.00 92 1015.9
20260906084114 78 179 2.6 3.5 0.00 0.00 0.00 92 1016.0
20260906083610 78 176 2.6 3.5 0.00 0.00 0.00 92 1016.1
20260906083109 79 185 2.6 3.5 0.00 0.00 0.00 91 1016.2
20260906082605 79 172 1.7 2.6 0.00 0.00 0.00 91 1016.0
20260906082100 79 186 1.7 2.6 0.00 0.00 0.00 91 1015.9
20260906081555 79 227 4.3 6.1 0.00 0.00 0.00 90 1016.0
20260906081045 79 171 1.7 2.6 0.00 0.00 0.00 90 1015.8
20260906080542 79 180 2.6 3.5 0.00 0.00 0.00 90 1015.9
20260906080037 79 197 4.3 5.2 0.00 0.00 0.00 90 1015.7
20260906075531 79 181 2.6 3.5 0.00 0.00 0.00 89 1015.8
20260906075020 79 177 2.6 3.5 0.00 0.00 0.00 89 1016.0
20260906074515 79 159 0.9 2.6 0.00 0.00 0.00 89 1016.0
20260906074014 79 179 1.7 2.6 0.00 0.00 0.00 89 1015.9
20260906073509 79 170 1.7 2.6 0.00 0.00 0.00 88 1015.8
20260906073005 79 176 1.7 2.6 0.00 0.00 0.00 88 1015.9
20260906072500 79 161 1.7 2.6 0.00 0.00 0.00 88 1015.9
20260906071955 79 191 2.6 3.5 0.00 0.00 0.00 88 1015.8
20260906071452 79 175 1.7 3.5 0.00 0.00 0.00 87 1016.0
20260906070947 79 192 3.5 3.5 0.00 0.00 0.00 87 1015.9
20260906070442 80 189 2.6 2.6 0.00 0.00 0.00 87 1016.1
20260906065938 80 166 0.9 2.6 0.00 0.00 0.00 87 1016.2
20260906065432 80 170 1.7 1.7 0.00 0.00 0.00 86 1016.1
20260906064928 80 179 2.6 2.6 0.00 0.00 0.00 86 1016.3
20260906064424 80 162 0.9 1.7 0.00 0.00 0.00 86 1016.3
20260906063919 80 160 0.9 0.9 0.00 0.00 0.00 86 1016.3
20260906063414 80 161 1.7 1.7 0.00 0.00 0.00 85 1016.5
20260906062909 80 160 0.9 0.9 0.00 0.00 0.00 85 1016.5
20260906062408 80 162 0.9 1.7 0.00 0.00 0.00 85 1016.5
20260906061903 80 158 0.9 0.9 0.00 0.00 0.00 84 1016.4
20260906061354 80 159 0.0 0.9 0.00 0.00 0.00 84 1016.6
20260906060848 80 159 0.0 0.9 0.00 0.00 0.00 84 1016.6
20260906060346 80 160 0.0 1.7 0.00 0.00 0.00 83 1016.5
20260906055842 80 159 0.9 0.9 0.00 0.00 0.00 83 1016.5
20260906055337 81 161 0.9 1.7 0.00 0.00 0.00 83 1016.8
20260906054832 81 161 0.9 1.7 0.00 0.00 0.00 83 1016.6
20260906054327 81 160 0.0 0.0 0.00 0.00 0.00 82 1016.6
20260906053824 81 160 0.0 0.9 0.00 0.00 0.00 82 1016.6
20260906053319 81 160 0.9 1.7 0.00 0.00 0.00 81 1016.5
20260906052814 81 160 0.9 0.9 0.00 0.00 0.00 81 1016.4
20260906052311 82 160 0.9 0.9 0.00 0.00 0.00 80 1016.4
20260906051808 82 159 0.0 1.7 0.00 0.00 0.00 80 1016.5
20260906051307 82 160 0.0 1.7 0.00 0.00 0.00 80 1016.4
20260906050803 82 164 0.9 1.7 0.00 0.00 0.00 79 1016.3
20260906050258 82 160 0.9 1.7 0.00 0.00 0.00 79 1016.5
20260906045756 82 167 1.7 2.6 0.00 0.00 0.00 79 1016.3
20260906045251 82 163 1.7 2.6 0.00 0.00 0.00 79 1016.1
20260906044747 82 159 0.9 1.7 0.00 0.00 0.00 78 1016.3
20260906044242 82 158 0.0 0.9 0.00 0.00 0.00 78 1016.3
20260906043738 82 162 0.9 1.7 0.00 0.00 0.00 78 1016.3
20260906043234 82 160 0.9 1.7 0.00 0.00 0.00 78 1016.2
20260906042733 82 159 0.0 1.7 0.00 0.00 0.00 77 1016.2
20260906042232 82 159 0.9 1.7 0.00 0.00 0.00 77 1016.2
20260906041728 82 162 1.7 2.6 0.00 0.00 0.00 77 1016.1
20260906041223 83 161 0.9 1.7 0.00 0.00 0.00 76 1016.2
20260906040719 83 163 0.9 1.7 0.00 0.00 0.00 75 1015.9
20260906040214 83 161 0.9 1.7 0.00 0.00 0.00 74 1015.9
20260906035709 83 160 0.9 1.7 0.00 0.00 0.00 74 1015.7
20260906035204 83 159 0.0 0.9 0.00 0.00 0.00 74 1015.9
20260906034658 83 159 0.9 0.9 0.00 0.00 0.00 74 1015.8
20260906034153 83 159 0.9 0.9 0.00 0.00 0.00 73 1015.7
20260906033649 83 160 0.9 1.7 0.00 0.00 0.00 73 1015.5
20260906033143 83 160 0.9 1.7 0.00 0.00 0.00 73 1015.6
20260906032640 84 157 0.9 0.9 0.00 0.00 0.00 72 1015.3
20260906032140 84 157 0.9 0.9 0.00 0.00 0.00 72 1015.5
20260906031635 84 156 0.0 0.9 0.00 0.00 0.00 72 1015.5
20260906031130 84 156 0.0 0.0 0.00 0.00 0.00 72 1015.4
20260906030630 84 156 0.0 0.0 0.00 0.00 0.00 72 1015.2
20260906030125 84 156 0.0 0.0 0.00 0.00 0.00 71 1015.1
20260906025624 84 158 0.0 0.9 0.00 0.00 0.00 71 1015.1
20260906025123 84 155 0.0 0.0 0.00 0.00 0.00 72 1015.2
20260906024618 84 156 0.0 0.0 0.00 0.00 0.00 71 1015.2
20260906024113 85 156 0.0 0.0 0.00 0.00 0.00 69 1015.0
20260906023609 85 156 0.0 0.0 0.00 0.00 0.00 68 1015.0
20260906023103 85 156 0.9 0.9 0.00 0.00 0.00 67 1015.0
20260906022558 86 156 0.0 0.9 0.00 0.00 0.00 67 1015.0
20260906022054 86 157 0.0 0.9 0.00 0.00 0.00 67 1014.9
20260906021544 86 158 0.0 0.0 0.00 0.00 0.00 66 1014.8
20260906021043 86 159 0.9 1.7 0.00 0.00 0.00 66 1014.9
20260906020542 86 157 0.0 0.9 0.00 0.00 0.00 66 1014.6
20260906020036 86 158 0.0 1.7 0.00 0.00 0.00 65 1014.6
20260906015535 87 161 1.7 1.7 0.00 0.00 0.00 64 1014.6
20260906015030 87 157 0.0 0.9 0.00 0.00 0.00 64 1014.3
20260906014525 86 160 0.9 2.6 0.00 0.00 0.00 64 1014.1
20260906014021 86 157 0.0 0.9 0.00 0.00 0.00 65 1014.1
20260906013516 87 157 0.9 0.9 0.00 0.00 0.00 64 1014.2
20260906013011 87 157 0.0 0.9 0.00 0.00 0.00 64 1014.1
20260906012506 87 158 0.0 1.7 0.00 0.00 0.00 63 1014.2
20260906012006 87 157 0.9 1.7 0.00 0.00 0.00 62 1014.2
20260906011502 88 158 0.9 0.9 0.00 0.00 0.00 62 1014.1
20260906010956 88 158 0.0 0.9 0.00 0.00 0.00 62 1014.1
20260906010451 89 157 0.0 0.9 0.00 0.00 0.00 61 1013.9
20260906005943 89 164 0.9 1.7 0.00 0.00 0.00 60 1014.0
20260906005441 89 161 0.9 1.7 0.00 0.00 0.00 60 1013.9
20260906004939 89 159 1.7 1.7 0.00 0.00 0.00 59 1014.1
20260906004434 90 158 0.0 1.7 0.00 0.00 0.00 59 1013.9
20260906003925 90 158 0.0 1.7 0.00 0.00 0.00 59 1013.7
20260906003419 90 176 1.7 2.6 0.00 0.00 0.00 59 1013.9
20260906002915 91 158 0.9 1.7 0.00 0.00 0.00 57 1013.9
20260906002414 91 163 1.7 2.6 0.00 0.00 0.00 58 1013.9
20260906001909 91 161 0.9 1.7 0.00 0.00 0.00 57 1013.9
20260906001405 92 160 0.9 1.7 0.00 0.00 0.00 57 1014.0
20260906000900 92 161 0.9 1.7 0.00 0.00 0.00 56 1014.0
20260906000359 92 160 0.9 2.6 0.00 0.00 0.00 56 1013.9
20260905235849 93 175 3.5 5.2 0.00 0.00 0.00 55 1013.8
20260905235343 93 174 1.7 3.5 0.00 0.00 0.00 55 1013.8
20260905234839 93 167 1.7 3.5 0.00 0.00 0.00 55 1014.0
20260905234334 93 174 2.6 3.5 0.00 0.00 0.00 55 1014.2
20260905233829 93 160 1.7 3.5 0.00 0.00 0.00 55 1014.2
20260905233324 94 158 2.6 3.5 0.00 0.00 0.00 54 1014.0
20260905232823 94 167 0.9 3.5 0.00 0.00 0.00 53 1013.8
20260905232320 94 166 0.9 1.7 0.00 0.00 0.00 53 1013.9
20260905231815 94 168 2.6 3.5 0.00 0.00 0.00 52 1013.7
20260905231310 95 200 4.3 5.2 0.00 0.00 0.00 52 1013.6
20260905230806 95 180 4.3 6.1 0.00 0.00 0.00 52 1013.8
20260905230304 95 176 3.5 5.2 0.00 0.00 0.00 51 1013.8
20260905225804 95 176 1.7 6.1 0.00 0.00 0.00 52 1013.5
20260905225259 95 175 0.9 3.5 0.00 0.00 0.00 52 1013.7
20260905224758 95 165 3.5 6.1 0.00 0.00 0.00 51 1013.7
20260905224254 95 175 1.7 3.5 0.00 0.00 0.00 51 1013.5
20260905223749 95 211 4.3 6.1 0.00 0.00 0.00 51 1013.6
20260905223246 95 170 2.6 5.2 0.00 0.00 0.00 51 1013.4
20260905222741 95 205 1.7 3.5 0.00 0.00 0.00 51 1013.4
20260905222240 95 248 5.2 7.0 0.00 0.00 0.00 51 1013.4
20260905221730 95 206 3.5 6.1 0.00 0.00 0.00 51 1013.6
20260905221227 96 168 2.6 3.5 0.00 0.00 0.00 50 1013.4
20260905220722 95 183 2.6 5.2 0.00 0.00 0.00 52 1013.6
20260905220218 96 176 3.5 9.6 0.00 0.00 0.00 52 1013.5
20260905215717 96 177 3.5 7.0 0.00 0.00 0.00 51 1013.8
20260905215214 96 174 3.5 5.2 0.00 0.00 0.00 51 1013.6
20260905214710 96 181 3.5 7.0 0.00 0.00 0.00 51 1013.7
20260905214204 97 199 3.5 7.0 0.00 0.00 0.00 50 1013.6
20260905213700 97 183 3.5 7.0 0.00 0.00 0.00 50 1013.5
20260905213155 98 215 4.3 8.7 0.00 0.00 0.00 47 1013.5
20260905212650 97 174 4.3 6.1 0.00 0.00 0.00 47 1013.7
20260905212149 98 180 1.7 5.2 0.00 0.00 0.00 48 1013.7
20260905211644 98 171 4.3 7.0 0.00 0.00 0.00 47 1013.8
20260905211140 98 238 7.8 9.6 0.00 0.00 0.00 47 1014.0
20260905210636 98 179 3.5 6.1 0.00 0.00 0.00 47 1013.9
20260905210131 98 172 3.5 5.2 0.00 0.00 0.00 47 1014.0
20260905205630 98 168 0.9 3.5 0.00 0.00 0.00 47 1014.1
20260905205130 97 212 3.5 7.8 0.00 0.00 0.00 48 1014.3
20260905204624 99 192 3.5 5.2 0.00 0.00 0.00 45 1014.7
20260905204119 99 141 1.7 5.2 0.00 0.00 0.00 44 1014.7
20260905203614 101 191 2.6 5.2 0.00 0.00 0.00 43 1014.7
20260905203109 101 142 0.9 1.7 0.00 0.00 0.00 42 1014.6
20260905202604 103 136 1.7 2.6 0.00 0.00 0.00 39 1014.6
20260905202059 103 143 1.7 2.6 0.00 0.00 0.00 38 1014.7
20260905201554 101 140 0.9 5.2 0.00 0.00 0.00 38 1014.8
20260905201054 101 126 0.9 5.2 0.00 0.00 0.00 40 1015.0
20260905200549 102 139 0.9 3.5 0.00 0.00 0.00 40 1014.9
20260905200044 101 142 0.9 1.7 0.00 0.00 0.00 40 1015.0
20260905195538 100 149 0.0 2.6 0.00 0.00 0.00 39 1015.0
20260905195034 99 164 2.6 7.0 0.00 0.00 0.00 41 1015.2
20260905194533 102 184 4.3 5.2 0.00 0.00 0.00 40 1015.3
20260905194033 101 163 2.6 3.5 0.00 0.00 0.00 40 1015.2
20260905193527 101 134 1.7 5.2 0.00 0.00 0.00 41 1015.2
20260905193023 101 142 1.7 1.7 0.00 0.00 0.00 39 1015.2
20260905192518 101 148 0.9 0.9 0.00 0.00 0.00 41 1015.4
20260905192015 101 142 0.9 2.6 0.00 0.00 0.00 39 1015.5
20260905191513 101 141 0.9 3.5 0.00 0.00 0.00 41 1015.4
20260905191012 102 114 1.7 5.2 0.00 0.00 0.00 41 1015.5
20260905190510 100 141 0.9 1.7 0.00 0.00 0.00 40 1015.4
20260905190004 100 120 3.5 5.2 0.00 0.00 0.00 41 1015.6
20260905185459 100 112 1.7 2.6 0.00 0.00 0.00 42 1015.5
20260905184957 100 124 2.6 3.5 0.00 0.00 0.00 41 1015.6
20260905184453 100 137 0.9 1.7 0.00 0.00 0.00 41 1015.9
20260905183951 100 146 0.9 2.6 0.00 0.00 0.00 42 1015.9
20260905183451 100 125 1.7 2.6 0.00 0.00 0.00 42 1016.0
20260905182946 99 146 0.9 3.5 0.00 0.00 0.00 43 1015.9
20260905182445 99 174 0.0 1.7 0.00 0.00 0.00 44 1016.0
20260905181940 98 111 3.5 5.2 0.00 0.00 0.00 46 1016.0
20260905181435 98 137 0.0 3.5 0.00 0.00 0.00 45 1016.0
20260905180934 99 170 1.7 2.6 0.00 0.00 0.00 46 1016.1
20260905180429 98 133 1.7 2.6 0.00 0.00 0.00 46 1016.0
20260905175924 97 142 0.0 1.7 0.00 0.00 0.00 48 1016.1
20260905175423 97 135 1.7 3.5 0.00 0.00 0.00 47 1016.1
20260905174918 98 150 0.9 2.6 0.00 0.00 0.00 46 1016.0
20260905174409 99 137 1.7 2.6 0.00 0.00 0.00 46 1016.1
20260905173904 97 146 0.0 1.7 0.00 0.00 0.00 48 1016.1
20260905173401 97 185 1.7 2.6 0.00 0.00 0.00 48 1016.2
20260905172855 97 142 0.9 2.6 0.00 0.00 0.00 49 1016.1
20260905172352 96 132 2.6 3.5 0.00 0.00 0.00 50 1016.3
20260905171849 97 130 1.7 1.7 0.00 0.00 0.00 50 1016.2
20260905171345 96 160 0.9 1.7 0.00 0.00 0.00 49 1016.3
20260905170842 96 164 0.9 2.6 0.00 0.00 0.00 51 1016.4
20260905170338 95 160 1.7 2.6 0.00 0.00 0.00 51 1016.6
20260905165836 96 153 0.9 1.7 0.00 0.00 0.00 51 1016.8